Wetbulb
58.59 57.51 57.30 56.90 56.17 56.22 56.34 56.82 58.46 58.91 59.19 59.86 59.89 59.79 59.67 59.54 59.08 57.39 51.22 58.15 60.13 69.55 69.31 66.90 62.09 61.85 63.30 62.95 64.71 63.63 58.28 55.08 55.70 56.13 57.23 62.56 61.27 63.91 64.73 62.42 62.94 63.81 63.37 64.75 67.72
58.35 57.38 57.45 56.60 56.49 55.56 55.38 55.86 58.07 58.62 59.00 59.48 59.60 59.33 59.26 59.33 57.61 54.03 61.67 65.54 68.89 69.39 62.97 60.12 58.76 60.18 59.38 59.19 62.32 60.73 57.86 56.62 59.65 59.59 59.00 62.13 62.20 63.12 62.04 61.17 61.19 61.95 64.78 66.66 67.05
57.77 57.35 56.79 56.44 56.51 55.58 55.25 55.88 57.00 58.62 58.84 59.04 58.83 59.06 59.06 59.22 55.05 53.05 66.31 69.16 69.14 67.97 62.64 59.94 59.25 58.76 57.07 61.68 60.55 59.44 57.25 59.13 59.93 61.11 61.32 62.10 62.29 64.23 61.82 59.79 62.03 61.89 63.54 65.42 65.61
57.31 57.12 56.55 55.66 55.81 55.44 55.36 55.29 56.39 58.55 58.44 58.50 58.50 58.79 59.07 59.78 50.07 59.06 68.75 69.81 70.00 64.33 61.33 60.22 58.51 57.52 58.64 58.75 60.87 57.47 59.28 59.95 60.72 61.76 61.30 61.32 63.66 61.95 62.85 62.25 63.49 64.26 65.19 65.20 64.54
56.92 56.55 55.95 55.19 55.17 55.09 55.57 55.29 55.05 57.39 57.81 57.93 58.37 59.02 59.34 56.50 57.61 66.52 71.12 69.83 67.25 60.62 59.48 58.13 57.77 58.75 57.98 59.59 60.28 58.58 59.64 60.42 60.25 61.58 61.91 63.23 61.82 61.72 61.76 61.35 62.44 64.95 64.47 64.04 64.33
56.28 55.72 55.51 55.30 54.85 55.15 55.05 54.66 54.26 55.84 57.36 57.65 58.47 59.22 58.20 53.29 63.13 69.28 65.57 64.61 61.79 60.09 58.85 59.14 58.75 61.37 60.03 59.66 59.27 59.19 59.46 59.57 59.90 61.80 62.57 61.33 61.03 61.67 62.19 60.33 61.76 63.28 62.86 63.53 63.72
56.25 55.50 55.30 55.01 54.83 55.54 54.85 54.46 54.18 55.92 57.62 58.24 59.52 59.68 56.50 54.89 64.55 67.44 62.88 60.71 61.11 60.58 57.40 59.77 62.56 61.98 61.28 58.67 60.83 59.23 57.32 58.82 59.14 61.97 61.12 62.51 58.69 59.50 62.46 60.26 60.21 61.81 62.61 62.60 62.99
56.87 55.38 55.15 54.73 54.99 54.99 54.99 54.46 54.32 55.69 57.78 59.75 60.24 59.75 53.82 59.41 66.19 63.62 61.13 59.98 61.48 60.28 59.03 59.92 61.45 61.86 61.04 61.15 58.52 56.91 56.67 54.71 56.61 60.87 61.50 61.39 55.20 61.39 61.60 59.53 59.67 60.35 61.13 61.46 62.24
56.82 55.17 54.64 54.38 54.66 54.80 54.70 54.56 55.93 57.23 58.48 60.55 58.57 58.42 52.36 61.58 59.40 62.18 61.04 57.60 58.96 59.25 59.19 64.18 63.45 60.10 59.65 57.14 55.08 54.58 51.33 52.12 54.03 58.85 60.32 59.95 57.16 60.33 61.34 59.96 59.54 59.28 59.78 60.31 61.95
56.68 55.45 54.54 54.30 54.54 54.13 54.09 54.83 57.77 59.03 59.24 60.17 59.98 54.15 55.55 53.89 58.37 58.91 60.81 59.19 57.79 57.43 57.33 58.69 59.21 57.54 56.02 54.88 47.60 49.11 50.76 51.91 52.19 56.24 58.89 57.64 57.46 59.42 60.95 59.54 59.62 59.48 59.17 58.84 59.61
56.51 55.80 54.52 54.36 54.30 53.46 53.07 55.85 53.81 55.32 58.39 53.58 52.60 52.33 53.59 57.95 58.97 59.01 59.37 58.55 59.10 56.64 53.33 55.63 53.57 51.90 53.04 55.81 54.80 52.71 50.65 50.28 53.40 56.68 56.50 56.28 56.52 58.59 61.11 59.99 59.71 60.23 59.43 59.58 60.02
56.04 55.72 54.80 54.23 53.95 53.03 51.86 52.02 55.07 55.79 51.93 54.20 56.25 55.91 56.69 58.71 54.00 56.50 60.72 56.68 56.01 53.13 53.10 51.75 50.72 54.12 52.53 52.87 53.13 51.99 51.17 51.57 53.82 56.06 56.09 54.84 55.21 58.14 60.42 60.10 60.64 60.97 60.74 60.65 61.69
55.23 55.07 54.29 53.95 53.54 52.19 51.42 52.90 55.67 56.19 52.37 52.99 55.22 55.14 56.01 57.58 53.90 54.60 57.74 56.11 54.45 52.46 51.94 50.48 52.25 52.92 52.01 51.59 51.07 52.22 51.66 52.27 51.99 55.19 56.20 55.13 54.00 55.94 58.93 60.59 61.18 61.81 62.21 62.08 61.98
54.97 54.32 53.85 53.02 52.36 54.07 54.16 56.53 55.65 55.81 50.10 49.55 51.86 55.83 55.84 56.59 52.70 57.41 58.17 56.42 53.95 52.44 52.18 51.91 52.65 51.59 50.63 50.85 51.90 49.38 54.14 53.97 53.73 52.53 48.55 54.66 46.44 53.16 56.27 57.79 59.49 60.67 61.86 62.13 62.81
54.55 54.03 53.58 52.21 52.61 52.96 55.17 56.69 54.54 55.80 41.59 51.47 53.39 56.76 54.65 52.92 53.98 54.77 57.61 55.65 52.27 52.17 52.59 51.49 51.99 51.28 50.63 51.46 53.36 50.78 54.26 53.06 53.22 51.43 50.13 50.77 48.86 52.37 53.40 54.50 57.08 60.09 61.16 62.36 63.18
54.26 53.85 53.25 52.07 52.55 55.22 56.68 55.63 56.22 48.77 41.27 50.60 55.68 54.88 50.48 52.16 52.51 54.57 55.50 57.04 55.65 52.43 52.41 52.41 53.19 52.32 52.60 53.63 53.67 55.60 53.81 50.90 49.85 50.41 45.52 48.75 49.16 48.56 52.64 54.66 56.03 58.04 60.05 61.67 61.99
54.08 52.93 51.65 54.11 52.77 55.85 55.41 57.33 48.41 43.56 49.56 50.91 52.61 55.11 53.75 53.42 53.57 52.43 52.53 52.13 50.62 48.32 48.88 50.95 51.24 52.49 53.14 53.21 55.07 53.81 51.61 46.47 44.43 43.79 43.28 49.42 48.29 50.68 54.05 55.56 56.25 56.71 58.29 59.13 59.93
52.48 51.29 51.64 54.30 56.15 55.53 56.79 54.54 42.94 46.04 49.68 54.29 54.54 54.51 52.31 54.56 53.58 54.64 50.56 50.00 53.22 51.34 49.15 46.35 44.94 52.63 56.27 54.72 53.12 51.22 52.40 47.23 40.27 41.23 44.30 48.78 45.24 50.70 54.58 56.34 57.28 57.44 58.02 58.44 58.37
50.91 52.64 53.42 54.98 54.60 55.32 56.32 48.45 46.69 48.51 53.87 53.51 53.16 51.19 51.20 53.51 53.36 53.85 52.17 50.62 53.29 51.71 49.04 46.65 47.16 54.54 55.81 55.91 55.80 51.17 49.53 51.36 46.71 43.47 42.38 44.72 47.93 52.55 54.44 55.49 55.98 55.39 55.42 56.62 57.66
54.03 54.83 54.68 55.53 56.76 56.75 53.76 45.57 49.27 51.54 56.15 54.82 49.56 52.12 49.40 51.27 51.30 52.16 51.55 54.85 53.77 55.58 56.15 52.25 48.26 53.16 55.04 55.75 53.34 53.06 51.95 46.36 46.76 39.90 37.89 42.34 44.50 46.50 51.55 54.06 56.10 55.02 55.07 56.33 56.97
56.51 54.91 57.20 56.16 56.20 56.65 50.30 49.25 50.54 53.43 57.05 54.00 52.10 51.62 51.96 51.05 51.73 50.93 52.03 54.22 55.98 55.69 56.19 54.57 51.73 50.67 53.49 51.26 49.44 50.49 49.80 47.77 47.33 45.48 40.71 39.29 43.11 51.96 52.86 53.76 54.57 56.86 56.66 56.03 56.15
54.50 52.16 58.22 55.58 53.02 49.86 50.69 50.59 49.25 54.05 58.05 57.14 55.73 54.42 52.48 52.61 51.74 51.36 51.09 53.59 57.20 56.97 53.45 53.44 52.46 48.77 49.99 52.60 52.15 52.16 49.42 48.46 44.87 42.59 44.04 43.27 44.00 51.97 53.15 53.46 53.49 54.62 56.68 56.33 56.33
54.63 56.29 59.43 56.77 49.37 50.43 51.13 51.03 52.47 52.37 54.93 55.51 55.37 55.63 56.31 53.03 50.03 51.94 53.52 57.20 57.17 56.05 53.92 54.57 50.14 46.73 47.83 49.20 51.61 50.36 50.95 49.08 47.25 46.34 44.37 41.89 44.22 52.18 53.84 53.74 53.63 53.83 54.99 55.08 53.75
55.27 54.56 57.27 55.13 52.76 51.59 49.77 49.96 49.94 55.91 55.62 56.74 55.94 56.44 54.30 52.67 54.24 52.01 52.51 56.33 57.40 55.72 55.74 56.38 50.92 48.98 45.48 46.36 48.70 48.50 50.08 49.35 47.94 44.89 43.38 44.12 45.53 50.06 51.23 52.16 53.11 52.96 53.25 52.19 51.29
59.39 57.91 58.17 53.16 54.93 54.10 52.06 50.58 50.91 53.19 56.61 57.37 54.84 55.38 54.48 51.92 52.61 52.08 53.44 55.16 56.27 55.87 55.55 55.36 50.17 49.97 50.27 49.82 50.34 48.26 47.13 47.20 45.89 45.74 44.23 46.62 46.60 49.04 49.70 51.54 52.39 52.06 50.95 50.52 49.16
59.78 59.50 58.67 56.10 55.50 55.16 51.28 53.32 52.68 53.33 55.24 54.28 54.14 55.55 55.36 54.05 54.86 52.95 54.18 54.70 53.47 55.06 54.61 54.07 49.70 51.03 48.82 50.11 50.11 47.61 48.23 47.34 48.04 48.42 47.70 47.78 47.10 49.46 50.34 53.11 52.38 51.49 50.16 46.98 48.81
59.47 62.42 59.38 51.31 54.02 54.57 54.52 54.83 54.93 55.97 56.63 57.07 56.10 56.02 54.41 55.15 57.52 57.94 57.31 57.42 56.75 54.98 53.74 53.31 52.56 50.39 46.60 49.66 48.80 45.47 48.03 48.74 48.75 49.04 47.41 44.73 46.80 48.36 48.43 48.26 48.33 49.23 49.89 50.25 50.73
MSLP
1016.93 1016.76 1016.48 1016.25 1016.05 1015.91 1015.78 1015.64 1015.40 1015.26 1015.13 1014.98 1014.91 1014.82 1014.76 1014.55 1014.21 1014.02 1012.65 1011.04 1011.44 1012.01 1012.22 1012.76 1012.80 1012.75 1012.66 1012.46 1012.65 1012.83 1012.62 1012.70 1012.95 1013.25 1013.67 1014.30 1014.58 1015.38 1015.77 1016.03 1016.45 1017.00 1017.18 1017.67 1018.67
1016.93 1016.77 1016.53 1016.26 1016.04 1015.92 1015.76 1015.64 1015.41 1015.19 1014.99 1014.88 1014.75 1014.71 1014.66 1014.49 1013.82 1012.74 1010.72 1010.86 1011.36 1011.87 1012.13 1012.17 1012.33 1012.47 1012.33 1012.40 1012.61 1012.54 1012.59 1012.50 1012.76 1013.02 1013.27 1013.91 1014.30 1015.04 1015.59 1015.98 1016.50 1017.16 1017.68 1018.00 1018.55
1017.00 1016.71 1016.49 1016.29 1015.99 1015.89 1015.78 1015.56 1015.34 1015.04 1014.86 1014.73 1014.65 1014.61 1014.49 1014.30 1013.17 1010.83 1010.21 1010.93 1011.41 1011.66 1011.70 1011.99 1012.01 1012.01 1011.96 1012.26 1012.57 1012.70 1012.54 1012.91 1012.90 1013.11 1013.43 1013.66 1014.28 1014.87 1015.17 1015.56 1015.76 1016.18 1017.33 1018.02 1018.41
1016.96 1016.67 1016.40 1016.22 1015.97 1015.83 1015.68 1015.51 1015.31 1014.97 1014.80 1014.69 1014.60 1014.53 1014.35 1013.91 1012.03 1010.17 1010.31 1010.82 1011.58 1011.63 1011.63 1011.88 1011.93 1011.78 1011.73 1011.89 1012.45 1012.49 1012.86 1013.12 1013.25 1013.21 1013.36 1013.71 1014.06 1014.74 1015.05 1015.24 1015.98 1016.23 1017.02 1017.64 1018.09
1016.93 1016.64 1016.35 1016.13 1015.85 1015.67 1015.53 1015.40 1015.30 1014.99 1014.76 1014.58 1014.45 1014.42 1014.28 1013.04 1010.86 1010.06 1010.42 1011.25 1011.96 1011.78 1011.53 1011.64 1011.63 1011.73 1011.52 1012.01 1012.42 1012.50 1012.94 1013.21 1013.47 1013.38 1013.36 1013.85 1014.12 1014.47 1014.93 1015.73 1016.18 1016.56 1017.15 1017.45 1017.91
1016.86 1016.59 1016.25 1015.97 1015.75 1015.49 1015.38 1015.21 1015.04 1014.82 1014.57 1014.40 1014.30 1014.32 1013.66 1011.72 1010.25 1010.14 1010.50 1011.30 1011.57 1011.56 1011.53 1011.53 1011.32 1011.68 1011.88 1012.22 1012.53 1012.86 1012.90 1012.98 1013.24 1013.31 1013.64 1013.88 1014.51 1015.05 1015.12 1015.98 1016.44 1016.70 1016.78 1017.31 1017.75
1016.76 1016.48 1016.21 1015.90 1015.61 1015.30 1015.19 1015.04 1014.88 1014.61 1014.36 1014.21 1014.13 1013.86 1012.89 1010.93 1010.10 1010.45 1010.69 1011.09 1011.39 1011.22 1011.22 1011.42 1011.38 1011.59 1012.09 1012.42 1012.91 1012.95 1012.90 1012.74 1013.04 1013.31 1013.51 1013.93 1014.23 1013.96 1014.79 1015.80 1016.34 1016.49 1016.81 1017.31 1017.65
1016.68 1016.42 1016.17 1015.87 1015.52 1015.19 1014.96 1014.74 1014.55 1014.30 1014.12 1013.94 1013.97 1013.52 1011.79 1010.57 1010.53 1010.68 1010.64 1010.89 1011.36 1011.37 1011.17 1011.28 1011.42 1011.88 1012.30 1012.73 1012.76 1012.70 1012.85 1012.50 1012.71 1012.91 1013.33 1013.52 1012.16 1012.86 1014.51 1015.34 1016.00 1016.28 1016.74 1017.41 1017.70
1016.62 1016.37 1016.13 1015.87 1015.45 1015.07 1014.74 1014.40 1014.01 1013.83 1013.85 1013.82 1013.75 1012.80 1011.19 1011.17 1010.55 1010.17 1010.32 1010.33 1011.03 1011.31 1011.30 1011.43 1011.49 1012.03 1012.48 1012.25 1012.36 1012.52 1011.88 1012.11 1012.25 1012.44 1012.76 1013.20 1012.18 1013.49 1014.73 1015.19 1015.48 1016.07 1016.40 1016.94 1017.30
1016.54 1016.30 1016.07 1015.76 1015.37 1015.02 1014.54 1014.22 1013.88 1013.75 1013.78 1013.59 1012.86 1012.30 1010.71 1009.98 1009.50 1009.72 1010.21 1010.20 1010.40 1011.07 1011.32 1011.40 1011.65 1011.78 1012.12 1011.88 1011.17 1011.26 1011.54 1011.83 1011.84 1012.34 1012.94 1012.93 1012.28 1013.76 1014.64 1015.19 1015.37 1015.93 1016.24 1016.63 1016.82
1016.41 1016.14 1015.94 1015.60 1015.32 1015.12 1014.30 1013.93 1014.05 1013.48 1012.83 1011.63 1011.05 1010.42 1009.51 1009.09 1009.18 1009.36 1009.44 1009.71 1009.91 1010.44 1010.55 1011.20 1011.03 1010.53 1010.29 1010.74 1010.58 1010.88 1011.16 1011.27 1011.40 1011.88 1012.55 1012.45 1012.48 1013.06 1014.24 1014.83 1015.18 1015.61 1015.85 1016.14 1016.21
1016.30 1016.02 1015.75 1015.44 1015.26 1015.18 1015.05 1013.40 1012.07 1011.77 1011.29 1010.65 1010.49 1009.85 1009.32 1008.93 1008.81 1008.96 1009.31 1009.38 1009.66 1009.73 1010.48 1011.10 1010.27 1009.74 1010.10 1010.13 1010.38 1010.43 1010.60 1010.62 1011.34 1011.92 1012.35 1012.43 1012.13 1012.59 1013.60 1014.12 1014.62 1014.96 1015.23 1015.36 1015.63
1016.17 1015.88 1015.56 1015.26 1015.09 1015.01 1013.86 1012.22 1011.52 1011.22 1010.96 1010.17 1009.77 1009.23 1008.72 1008.73 1008.31 1008.24 1008.63 1008.63 1008.89 1009.36 1009.73 1009.81 1009.36 1009.47 1009.56 1009.48 1009.68 1009.71 1010.00 1010.14 1010.82 1011.83 1012.52 1012.63 1012.07 1012.27 1013.11 1013.66 1014.06 1014.39 1014.66 1014.88 1015.08
1016.01 1015.66 1015.36 1015.01 1015.24 1013.83 1012.70 1011.62 1011.60 1011.49 1010.78 1009.90 1009.19 1008.43 1008.46 1008.26 1008.05 1007.70 1007.91 1008.06 1008.64 1008.82 1009.30 1009.32 1009.20 1008.98 1008.96 1008.90 1009.24 1008.93 1009.07 1009.73 1010.64 1011.43 1011.85 1012.75 1012.04 1011.93 1012.59 1012.87 1013.17 1013.52 1013.82 1014.18 1014.45
1015.85 1015.47 1015.22 1015.03 1014.43 1013.31 1012.14 1011.69 1011.55 1011.35 1010.30 1009.38 1008.56 1008.22 1008.18 1007.99 1007.56 1007.43 1007.62 1007.77 1008.03 1008.46 1009.04 1008.49 1008.51 1008.73 1008.53 1008.19 1008.67 1008.56 1009.00 1009.68 1010.47 1011.12 1011.73 1012.30 1012.59 1011.56 1012.43 1012.02 1012.00 1012.53 1013.03 1013.50 1013.94
1015.56 1015.22 1015.04 1014.88 1014.50 1012.44 1011.96 1011.60 1011.49 1011.02 1009.97 1009.03 1008.46 1008.22 1008.21 1008.02 1007.63 1007.47 1007.59 1007.71 1007.99 1008.38 1008.64 1008.29 1008.54 1008.39 1007.82 1007.69 1008.22 1008.74 1009.18 1009.96 1010.57 1010.94 1011.14 1011.38 1012.04 1011.35 1011.48 1011.50 1011.56 1011.99 1012.55 1013.16 1013.87
1015.07 1014.82 1014.91 1014.23 1012.96 1012.30 1011.96 1011.47 1011.16 1010.47 1010.27 1009.45 1008.84 1008.61 1008.54 1008.38 1008.12 1007.78 1007.67 1007.91 1008.00 1008.33 1008.36 1008.23 1008.02 1007.70 1007.70 1007.85 1008.44 1008.86 1009.27 1009.54 1010.04 1010.57 1010.71 1011.82 1012.20 1010.91 1011.20 1011.60 1011.94 1012.13 1012.40 1013.00 1013.57
1014.59 1014.19 1014.11 1013.43 1012.79 1012.50 1011.76 1011.21 1010.80 1010.55 1009.98 1009.62 1009.31 1009.03 1008.83 1009.03 1008.69 1008.47 1008.13 1007.97 1008.05 1008.06 1008.02 1008.23 1007.92 1007.64 1007.32 1007.61 1007.93 1008.82 1009.38 1009.74 1009.76 1010.33 1010.81 1012.34 1011.70 1011.00 1011.45 1011.75 1012.00 1012.31 1012.47 1013.09 1013.66
1014.12 1013.84 1013.39 1012.55 1012.56 1012.90 1011.68 1011.04 1010.65 1010.39 1010.07 1009.75 1009.62 1009.45 1009.49 1009.61 1009.50 1009.07 1008.73 1008.23 1008.01 1008.18 1008.25 1008.48 1008.19 1007.65 1007.78 1007.91 1008.44 1009.24 1009.76 1010.34 1010.38 1011.30 1011.32 1011.40 1011.44 1011.05 1011.47 1011.61 1011.95 1012.35 1012.71 1013.02 1013.46
1013.99 1013.08 1012.40 1011.98 1012.03 1011.75 1011.23 1011.06 1010.75 1010.41 1010.02 1009.94 1009.84 1010.04 1009.92 1009.99 1009.77 1009.61 1009.20 1008.76 1008.52 1008.46 1008.50 1008.90 1008.72 1008.27 1008.19 1008.30 1009.07 1009.38 1010.22 1010.70 1010.97 1010.90 1010.84 1011.28 1011.50 1011.14 1011.07 1011.09 1011.75 1012.19 1012.51 1013.09 1013.73
1013.69 1012.64 1012.10 1011.86 1011.64 1011.15 1011.05 1010.89 1010.55 1010.06 1010.09 1010.07 1010.01 1010.25 1010.42 1010.45 1010.49 1009.93 1009.69 1009.25 1009.21 1009.35 1009.02 1009.09 1009.44 1009.14 1008.89 1008.89 1009.25 1009.84 1010.25 1011.15 1011.65 1011.74 1011.41 1011.43 1011.42 1011.48 1011.58 1011.90 1012.02 1012.23 1012.77 1013.49 1014.08
1013.55 1012.53 1011.93 1011.73 1011.50 1011.91 1011.19 1010.89 1010.53 1009.88 1009.99 1010.01 1010.27 1010.48 1010.73 1010.80 1010.67 1009.89 1010.14 1009.91 1009.77 1009.93 1009.77 1010.04 1009.98 1009.57 1009.33 1009.67 1009.95 1010.09 1010.61 1011.16 1011.47 1012.09 1012.42 1012.33 1011.85 1012.18 1012.38 1012.57 1012.73 1012.56 1012.91 1013.51 1014.44
1013.84 1012.71 1011.84 1011.38 1011.56 1011.59 1011.36 1010.78 1010.31 1009.91 1009.94 1010.03 1010.30 1010.58 1010.91 1011.06 1011.19 1010.76 1010.46 1010.31 1010.30 1010.21 1010.39 1010.34 1010.62 1010.30 1010.03 1010.44 1010.31 1010.50 1010.98 1011.58 1012.09 1012.33 1012.04 1012.08 1011.95 1012.52 1012.63 1012.72 1012.97 1013.07 1013.36 1014.08 1015.17
1014.10 1012.78 1012.04 1011.83 1012.12 1011.60 1011.44 1010.88 1010.31 1009.90 1009.98 1010.17 1010.45 1010.73 1011.10 1011.12 1011.14 1010.87 1010.69 1010.45 1010.52 1010.72 1010.85 1010.92 1011.23 1010.95 1010.62 1010.82 1011.19 1011.18 1011.29 1011.60 1011.97 1012.22 1012.38 1012.54 1012.79 1012.74 1013.03 1013.22 1013.45 1013.98 1014.60 1015.28 1015.82
1014.06 1012.98 1012.41 1012.18 1012.12 1011.95 1011.93 1011.52 1010.66 1010.16 1010.19 1010.30 1010.53 1010.53 1010.73 1010.94 1010.93 1010.70 1010.74 1010.69 1010.85 1010.97 1011.34 1011.47 1011.60 1011.65 1011.26 1011.44 1011.59 1011.79 1011.87 1012.04 1012.27 1012.82 1012.95 1013.26 1013.45 1014.00 1014.32 1014.35 1014.47 1015.00 1015.41 1015.90 1016.63
1014.27 1013.21 1012.74 1012.50 1012.38 1012.17 1012.32 1011.71 1011.22 1010.76 1010.59 1010.21 1010.26 1010.30 1010.57 1010.48 1010.19 1010.27 1010.44 1010.15 1011.10 1011.40 1011.44 1012.04 1012.10 1011.82 1011.55 1011.62 1011.67 1011.98 1012.38 1012.67 1012.80 1013.20 1013.56 1013.99 1014.20 1015.11 1015.21 1015.03 1015.19 1015.46 1015.78 1016.22 1016.40
1014.36 1013.66 1013.04 1013.02 1012.66 1012.48 1012.28 1012.03 1011.74 1011.72 1010.86 1010.59 1010.42 1010.26 1010.31 1010.29 1010.27 1010.38 1010.73 1010.51 1010.78 1011.25 1011.76 1012.11 1012.05 1011.97 1011.79 1012.08 1012.08 1012.41 1012.83 1013.08 1013.37 1014.00 1014.35 1014.47 1015.43 1015.65 1015.56 1015.75 1016.03 1016.20 1016.41 1016.60 1016.98
Wind_Speed
12 12 11 10 9 9 8 9 8 7 6 6 6 5 6 7 5 2 5 5 5 14 9 8 3 5 3 2 1 1 2 4 5 6 5 10 7 3 2 7 3 1 2 4 18
12 12 11 10 9 9 8 8 9 7 6 6 5 5 5 6 1 6 6 5 13 15 10 11 7 6 4 3 2 1 2 7 4 4 6 13 10 10 5 5 4 4 3 14 19
12 12 12 10 10 9 8 8 9 8 7 6 6 6 5 5 3 5 8 11 17 11 8 5 8 4 3 3 2 2 2 1 3 5 4 12 8 7 5 6 7 9 13 17 17
12 13 12 11 10 10 8 8 9 9 8 6 6 6 5 3 8 2 9 14 14 6 11 6 7 4 2 3 2 2 0 1 5 2 7 12 10 6 10 1 4 6 15 19 19
13 12 12 12 11 10 9 9 8 9 7 6 6 5 2 3 3 1 7 9 11 5 8 5 6 3 2 2 3 1 1 1 2 2 7 10 8 5 10 1 3 12 16 17 17
13 12 13 13 12 11 10 10 9 10 8 6 5 3 2 4 2 3 11 11 9 8 6 4 3 3 3 1 4 1 2 3 2 7 8 9 5 3 6 7 9 13 15 15 17
13 13 12 13 13 12 12 11 10 11 8 5 4 4 2 1 1 5 11 6 8 7 5 4 3 1 3 3 2 2 4 4 8 8 5 6 8 15 7 11 12 12 12 14 14
11 14 13 12 13 14 13 13 12 12 7 5 5 3 3 3 6 8 3 5 5 2 1 1 5 5 1 4 2 1 0 4 3 9 5 9 17 10 14 15 14 13 11 12 14
11 14 14 12 13 14 14 15 11 5 4 5 3 2 1 2 4 7 5 4 7 2 2 6 3 3 4 2 1 1 7 7 4 12 7 13 13 2 11 13 14 14 13 13 13
11 12 14 12 12 14 16 6 3 4 3 4 3 3 4 2 4 6 6 8 5 8 5 2 3 3 3 5 6 6 8 6 10 5 10 12 20 2 10 13 13 13 13 13 13
13 11 13 12 11 11 9 2 3 3 3 4 0 2 2 1 4 3 4 7 5 4 5 3 5 8 10 13 13 8 8 13 4 4 9 14 17 11 11 14 13 13 13 14 15
14 12 13 12 10 9 3 3 1 3 4 4 5 7 4 2 1 6 11 6 7 6 7 4 9 12 3 7 10 8 7 8 2 2 10 3 14 10 11 15 16 15 14 15 14
14 12 14 11 10 2 3 3 4 3 2 2 4 4 4 8 6 6 12 5 4 5 7 5 6 3 7 3 5 6 8 9 5 6 2 2 8 6 6 13 14 17 14 13 14
15 15 13 14 3 0 4 2 4 2 1 1 2 3 5 5 5 5 9 4 3 8 6 7 1 3 2 10 3 13 6 10 5 6 7 2 5 4 5 11 16 17 18 16 14
14 15 11 6 4 3 3 6 4 3 1 3 1 1 1 7 4 7 3 3 9 9 5 11 8 8 12 11 5 13 1 2 5 4 3 6 4 3 3 8 15 16 17 17 13
15 14 9 2 2 4 5 1 2 1 1 2 1 1 4 3 3 1 4 2 2 5 4 14 1 5 12 12 7 4 3 3 3 2 6 3 6 4 4 3 3 4 12 13 13
16 14 5 2 1 4 4 2 0 1 2 3 2 3 1 2 2 4 7 6 7 6 9 5 7 4 4 5 3 2 2 5 5 4 9 4 5 9 4 6 8 7 7 8 6
21 7 3 5 3 6 2 1 1 1 3 2 3 0 2 5 1 4 2 5 5 5 7 6 10 6 4 4 2 3 3 4 9 10 12 3 6 2 1 6 5 4 5 6 7
15 2 2 2 7 3 2 2 3 4 1 3 1 2 3 1 1 4 3 4 1 6 7 6 6 2 3 2 3 3 4 3 3 2 5 2 4 7 2 6 4 4 6 9 8
3 2 2 3 7 2 2 3 3 3 2 1 1 1 1 3 2 4 3 2 1 1 2 3 4 1 2 3 7 1 4 3 1 5 5 2 4 5 6 7 7 8 11 9 6
2 1 5 2 2 2 2 3 5 5 4 3 2 3 1 1 3 2 3 2 2 0 2 4 2 1 3 1 0 2 2 2 1 3 4 5 4 5 9 8 7 9 8 6 6
2 1 3 4 2 1 3 4 2 3 3 4 2 2 3 3 4 3 2 3 5 3 2 1 3 3 1 1 2 1 1 1 3 1 0 2 3 4 8 9 8 8 7 7 5
2 1 1 2 2 1 1 3 3 3 4 4 4 2 2 1 2 1 2 2 3 1 0 3 2 2 2 4 2 2 2 3 3 1 4 6 3 5 8 8 7 7 1 6 4
1 2 2 3 1 1 0 3 4 2 2 2 3 3 2 3 3 1 1 1 2 3 9 3 3 3 3 2 2 4 8 4 2 3 1 2 8 11 17 16 9 7 7 9 8
1 2 2 3 2 3 1 2 2 3 1 5 2 7 7 5 2 4 2 2 0 3 3 2 3 3 2 2 2 2 3 5 2 3 4 8 9 11 13 13 7 6 7 8 9
3 2 2 2 1 1 1 1 2 3 3 3 6 7 8 5 4 5 6 3 1 2 2 1 2 1 2 0 3 5 3 1 5 6 4 7 6 11 8 5 6 4 6 7 8
2 1 3 1 2 2 1 1 2 5 2 2 4 4 4 0 3 3 2 2 5 2 3 1 3 1 1 5 5 4 3 5 3 6 3 7 5 8 7 8 7 5 3 5 3
Wind_Direction
350 349 345 344 340 335 333 330 329 328 326 333 334 334 327 323 300 197 230 211 166 162 115 131 107 135 157 134 86 135 166 168 169 172 143 164 176 143 109 148 135 141 122 123 147
347 345 345 340 338 333 331 327 326 327 327 329 336 332 328 324 208 242 253 175 145 152 138 165 148 144 132 140 132 209 206 181 169 157 174 177 186 171 183 164 180 175 107 141 152
348 342 340 340 336 334 328 324 326 326 324 325 326 322 318 296 194 228 179 153 156 170 142 139 139 170 175 170 141 141 327 173 203 209 202 177 181 173 182 206 211 206 162 162 164
350 343 340 338 333 330 327 322 321 324 323 318 312 309 306 231 156 197 189 159 162 148 130 134 154 179 193 178 139 251 173 155 17 302 176 185 154 197 213 196 309 215 168 167 177
350 345 340 336 331 328 325 318 315 316 314 311 302 291 234 198 250 297 182 149 147 133 139 161 173 171 261 163 160 255 60 341 359 184 179 154 191 214 222 252 129 150 162 180 183
350 346 342 334 329 324 323 316 312 311 307 300 283 250 225 162 48 222 159 148 159 148 161 168 241 193 106 114 221 117 208 213 163 160 161 182 168 204 201 162 166 170 178 184 186
349 344 341 333 327 323 320 314 308 304 296 284 246 239 233 39 222 157 152 141 158 182 150 197 188 282 137 136 142 152 233 241 184 177 166 168 215 224 176 172 182 186 184 189 202
345 343 338 334 327 322 320 314 303 290 284 268 197 223 247 349 132 146 170 112 135 100 80 335 189 103 19 137 65 356 239 267 140 170 172 205 261 206 168 174 192 194 195 207 216
337 343 339 336 329 324 321 312 295 259 210 146 184 241 168 166 196 179 189 138 130 121 32 105 74 80 153 162 266 244 268 235 277 208 158 206 265 127 175 188 195 201 200 211 224
332 343 339 335 330 329 321 290 36 152 151 213 245 233 173 188 164 151 184 161 131 128 116 158 84 176 143 199 284 277 251 258 249 193 214 207 251 162 186 202 206 210 207 218 215
331 334 338 332 331 336 334 216 227 184 214 222 217 292 257 297 155 201 176 156 134 183 177 184 212 231 251 220 258 289 261 256 267 191 205 234 260 265 206 212 216 220 215 223 221
327 332 335 329 328 325 284 228 147 17 294 241 255 275 262 306 218 159 160 179 190 184 131 154 238 246 281 227 244 259 258 260 211 163 216 246 272 266 219 219 219 221 223 229 231
323 329 332 325 323 247 239 245 87 357 270 280 198 219 221 183 208 205 181 157 172 183 197 223 275 173 263 222 266 275 241 256 274 144 182 300 280 249 225 228 224 228 237 238 239
322 333 332 325 264 216 241 117 325 218 350 355 234 265 176 178 229 186 195 151 180 233 189 251 271 272 298 304 261 302 244 245 179 199 288 245 282 264 246 247 232 230 229 235 239
323 332 330 324 315 223 40 337 105 198 81 359 113 97 127 211 185 199 171 141 212 203 197 263 254 268 283 273 252 282 25 218 169 192 242 184 236 255 268 260 245 233 228 229 237
326 327 328 189 225 271 321 179 231 258 124 34 68 91 172 235 200 112 176 151 102 172 224 258 280 235 258 290 230 140 127 85 90 154 256 274 219 259 231 258 316 266 227 227 239
321 316 266 293 330 329 321 191 16 201 318 5 346 4 108 360 281 220 183 180 205 206 236 254 251 250 205 211 158 174 245 273 256 243 290 133 202 267 300 302 285 314 210 200 194
329 316 200 248 306 340 179 122 161 250 262 338 343 47 89 355 55 332 220 227 226 215 239 250 280 196 181 241 240 160 201 261 294 293 312 154 236 272 274 313 259 267 223 174 176
320 199 245 245 220 243 181 112 206 205 298 299 153 60 55 89 311 339 242 251 184 182 202 188 253 297 63 32 316 121 218 18 285 98 251 12 266 259 271 239 226 195 187 196 191
322 329 347 341 166 157 103 192 219 222 245 180 343 305 304 343 332 23 294 32 94 184 250 139 270 25 28 121 69 325 94 259 212 278 291 185 289 285 290 256 219 212 211 203 191
289 83 7 129 220 72 156 215 236 233 218 208 220 194 184 292 280 112 295 321 22 319 193 136 215 184 242 96 61 194 223 67 319 287 303 322 306 350 331 346 310 268 237 213 197
337 88 25 273 82 8 165 199 230 248 175 221 148 133 224 193 246 121 263 290 13 345 222 66 144 253 325 45 272 206 69 140 292 264 58 307 297 345 333 330 307 293 256 189 191
22 47 90 287 143 169 258 262 243 223 223 193 170 209 175 239 276 321 23 342 324 225 351 182 49 268 191 165 138 52 31 104 112 213 241 295 349 15 5 356 359 331 236 134 108
290 114 45 62 27 117 190 253 245 205 209 150 131 117 116 244 206 195 311 339 327 63 56 60 108 254 295 313 17 304 321 346 229 266 2 299 320 357 356 355 1 47 77 76 81
334 66 356 169 127 98 138 316 269 217 183 190 143 204 187 198 200 204 200 269 273 95 81 87 158 231 26 272 198 72 21 44 73 46 351 353 339 8 354 352 29 83 91 89 89
341 329 65 78 57 92 99 217 266 271 232 214 232 182 191 224 237 209 200 166 9 134 85 89 134 286 153 102 348 108 51 102 80 31 21 346 36 5 9 39 55 82 122 144 167
358 258 284 60 101 233 160 319 318 355 257 291 285 190 195 105 297 328 261 68 122 118 141 139 142 11 281 351 134 154 47 57 88 55 346 14 1 336 19 28 29 47 103 112 107